, AK

(GMT )
Northway

Weather History for PAOR - November, 2012

Change the Weather History Date:

Friday, November 9, 2012

  Actual Average Record
Temperature  
Mean Temperature -6 °F -  
Max Temperature 6 °F 10 °F 42 °F (1979)
Min Temperature -18 °F -6 °F -39 °F (1990)
Degree Days  
Heating Degree Days 71    
Moisture  
Dew Point -6 °F    
Average Humidity 81    
Maximum Humidity 85    
Minimum Humidity 76    
Precipitation  
Precipitation 0.00 in - - ()
Snow  
Snow 0.00 in - - ()
Snow Depth 9.00 in    
Sea Level Pressure  
Sea Level Pressure 30.24 in    
Wind  
Wind Speed 1 mph (SE)    
Max Wind Speed 6 mph    
Max Gust Speed -    
Visibility 8 miles    
Events Fog , Snow    
Averages and records for this station are not official NWS values.
T = Trace of Precipitation, MM = Missing Value Source: NWS Daily Summary

Daily Weather History Graph

Daily Weather History Graph

Search for Another Location

Airport or City:

Trip Planner

Search our weather history database for the weather conditions in past years. The results will help you decide how hot, cold, wet, or windy it might be!

Date:

Astronomy

Nov. 09, 2012 Rise Set
Actual Time 8:30 AM AKST 3:51 PM AKST
Civil Twilight 7:36 AM AKST 4:45 PM AKST
Nautical Twilight 6:40 AM AKST 5:42 PM AKST
Astronomical Twilight 5:46 AM AKST 6:35 PM AKST
Moon 2:12 AM AKST (11/9) 2:25 PM AKST (11/9)
Length of Visible Light 9h 09m
Length of Day
7h 21m
Waning Crescent, 22% of the Moon is Illuminated
Nov 9
Waning Crescent
Nov 13
New
Nov 20
First Quarter
Nov 28
Full
Dec 6
Last Quarter

Hourly Weather History & Observations

Time (AKST) Temp. Windchill Dew Point Humidity Pressure Visibility Wind Dir Wind Speed Gust Speed Precip Events Conditions
12:53 AM -18.9 °F - -24.0 °F 78% 30.58 in 10.0 mi Calm Calm - N/A   Mostly Cloudy
1:53 AM -16.1 °F - -20.0 °F 82% 30.55 in 10.0 mi Calm Calm - N/A   Mostly Cloudy
3:53 AM -13.0 °F - -18.0 °F 78% 30.50 in 10.0 mi Calm Calm - N/A   Mostly Cloudy
4:53 AM -11.9 °F - -16.1 °F 82% 30.47 in 10.0 mi Calm Calm - N/A   Mostly Cloudy
5:53 AM -9.9 °F - -15.0 °F 78% 30.45 in 10.0 mi Calm Calm - N/A   Mostly Cloudy
6:53 AM -9.0 °F - -14.1 °F 79% 30.42 in 10.0 mi Calm Calm - N/A   Mostly Cloudy
7:53 AM -9.0 °F - -14.1 °F 79% 30.40 in 10.0 mi Calm Calm - N/A   Mostly Cloudy
8:53 AM -7.1 °F - -11.9 °F 79% 30.39 in 10.0 mi Calm Calm - N/A   Mostly Cloudy
9:53 AM -6.0 °F - -11.0 °F 79% 30.36 in 10.0 mi Calm Calm - N/A   Mostly Cloudy
10:53 AM -5.1 °F - -9.0 °F 83% 30.35 in 10.0 mi Calm Calm - N/A   Overcast
11:53 AM -2.0 °F -10.1 °F -7.1 °F 79% 30.30 in 10.0 mi East 3.5 mph - N/A   Overcast
12:53 PM 1.9 °F -7.6 °F -4.0 °F 76% 30.25 in 6.0 mi SE 4.6 mph - 0.00 in Snow Light Snow
1:53 PM 3.0 °F -8.0 °F -2.0 °F 80% 30.22 in 10.0 mi SE 5.8 mph - 0.00 in   Overcast
2:53 PM 3.9 °F -3.4 °F -0.9 °F 80% 30.19 in 6.0 mi SE 3.5 mph - 0.00 in Snow Light Snow
3:53 PM 3.9 °F -3.4 °F -0.9 °F 80% 30.17 in 9.0 mi SE 3.5 mph - 0.00 in Snow Light Snow
4:53 PM 5.0 °F -4.1 °F -0.0 °F 80% 30.14 in 6.0 mi SSE 4.6 mph - 0.00 in Fog , Snow Light Snow
5:31 PM 5.0 °F -2.1 °F 1.4 °F 85% 29.92 in 2.5 mi Variable 3.5 mph - 0.00 in Snow Light Snow
5:53 PM 6.1 °F -2.8 °F 1.9 °F 83% 30.13 in 1.8 mi SE 4.6 mph - 0.00 in Snow Light Snow
6:53 PM 6.1 °F - 1.9 °F 83% 30.11 in 2.0 mi Calm Calm - 0.00 in Snow Light Snow
7:22 PM 6.8 °F -0.1 °F 3.2 °F 85% 29.89 in 5.0 mi South 3.5 mph - 0.00 in Snow Light Snow
7:53 PM 6.1 °F - 1.9 °F 83% 30.09 in 3.0 mi Calm Calm - 0.00 in Snow Light Snow
8:53 PM 3.9 °F - -0.0 °F 84% 30.07 in 5.0 mi Calm Calm - 0.00 in Snow Light Snow
9:53 PM 3.9 °F - -0.0 °F 84% 30.05 in 10.0 mi Calm Calm - 0.00 in   Mostly Cloudy
10:53 PM 6.1 °F - 1.0 °F 80% 30.02 in 10.0 mi Calm Calm - N/A   Overcast
11:53 PM 6.1 °F - 1.9 °F 83% 30.00 in 10.0 mi Calm Calm - N/A   Overcast